| time (UTC) | temp F | wind direction | speed MPH | gust MPH | rain 1hr in | rain 24hr in | rain mn in | humidity % | barometer mb |
| 20260906000526 | 0 | 0.0 | 0.0 | 0.00 | 0.00 | 0.00 | 1031.6 | ||
| 20260905235524 | 55 | 0.0 | 2.0 | 0.00 | 0.00 | 0.00 | 83 | 1028.7 | |
| 20260905234602 | 55 | 0.0 | 2.0 | 0.00 | 0.00 | 0.00 | 83 | 1027.2 | |
| 20260905233520 | 55 | 158 | 0.0 | 2.0 | 0.00 | 0.00 | 0.00 | 82 | 1027.0 |
| 20260905232518 | 55 | 248 | 1.0 | 4.0 | 0.00 | 0.00 | 0.00 | 81 | 1026.9 |
| 20260905231516 | 56 | 257 | 2.0 | 6.0 | 0.00 | 0.00 | 0.00 | 81 | 1026.9 |
| 20260905230614 | 55 | 256 | 3.0 | 6.0 | 0.00 | 0.00 | 0.00 | 82 | 1026.9 |
| 20260905225632 | 0 | 0.0 | 0.0 | 0.00 | 0.00 | 0.00 | 1031.0 | ||
| 20260905224610 | 0 | 0.0 | 0.0 | 0.00 | 0.00 | 0.00 | 1031.1 | ||
| 20260905223608 | 0 | 0.0 | 0.0 | 0.00 | 0.00 | 0.00 | 1031.1 | ||
| 20260905222626 | 0 | 0.0 | 0.0 | 0.00 | 0.00 | 0.00 | 1030.9 | ||
| 20260905221604 | 0 | 0.0 | 0.0 | 0.00 | 0.00 | 0.00 | 1030.9 | ||
| 20260905220602 | 57 | 270 | 3.0 | 4.0 | 0.00 | 0.00 | 0.00 | 78 | 1026.8 |
| 20260905215600 | 57 | 267 | 2.0 | 4.0 | 0.00 | 0.00 | 0.00 | 78 | 1026.8 |
| 20260905214558 | 58 | 248 | 3.0 | 4.0 | 0.00 | 0.00 | 0.00 | 77 | 1026.6 |
| 20260905213556 | 58 | 248 | 2.0 | 2.0 | 0.00 | 0.00 | 0.00 | 78 | 1026.6 |
| 20260905212554 | 57 | 252 | 2.0 | 4.0 | 0.00 | 0.00 | 0.00 | 80 | 1027.1 |
| 20260905211552 | 57 | 248 | 1.0 | 4.0 | 0.00 | 0.00 | 0.00 | 80 | 1027.8 |
| 20260905210550 | 0 | 0.0 | 0.0 | 0.00 | 0.00 | 0.00 | 1030.4 | ||
| 20260905205548 | 0 | 0.0 | 0.0 | 0.00 | 0.00 | 0.00 | 1030.3 | ||
| 20260905204546 | 0 | 0.0 | 0.0 | 0.00 | 0.00 | 0.00 | 1030.2 | ||
| 20260905203604 | 59 | 270 | 2.0 | 2.0 | 0.00 | 0.00 | 0.00 | 76 | 1026.1 |
| 20260905202541 | 59 | 253 | 2.0 | 4.0 | 0.00 | 0.00 | 0.00 | 76 | 1027.3 |
| 20260905201539 | 60 | 248 | 2.0 | 6.0 | 0.00 | 0.00 | 0.00 | 74 | 1028.0 |
| 20260905200557 | 60 | 255 | 2.0 | 6.0 | 0.00 | 0.00 | 0.00 | 74 | 1025.9 |
| 20260905195535 | 60 | 261 | 2.0 | 4.0 | 0.00 | 0.00 | 0.00 | 74 | 1025.8 |
| 20260905194533 | 61 | 248 | 2.0 | 2.0 | 0.00 | 0.00 | 0.00 | 72 | 1025.9 |
| 20260905193531 | 61 | 263 | 2.0 | 4.0 | 0.00 | 0.00 | 0.00 | 71 | 1025.7 |
| 20260905192529 | 61 | 248 | 3.0 | 4.0 | 0.00 | 0.00 | 0.00 | 71 | 1025.6 |
| 20260905191527 | 61 | 263 | 2.0 | 4.0 | 0.00 | 0.00 | 0.00 | 72 | 1025.5 |
| 20260905190525 | 61 | 270 | 0.0 | 2.0 | 0.00 | 0.00 | 0.00 | 72 | 1025.3 |
| 20260905185523 | 61 | 254 | 1.0 | 4.0 | 0.00 | 0.00 | 0.00 | 71 | 1025.4 |
| 20260905184521 | 62 | 273 | 3.0 | 6.0 | 0.00 | 0.00 | 0.00 | 70 | 1025.2 |
| 20260905183519 | 0 | 0.0 | 0.0 | 0.00 | 0.00 | 0.00 | 1029.1 | ||
| 20260905182517 | 0 | 0.0 | 0.0 | 0.00 | 0.00 | 0.00 | 1028.9 | ||
| 20260905181515 | 0 | 0.0 | 0.0 | 0.00 | 0.00 | 0.00 | 1028.7 | ||
| 20260905180613 | 0 | 0.0 | 0.0 | 0.00 | 0.00 | 0.00 | 1028.6 | ||
| 20260905175611 | 63 | 270 | 3.0 | 4.0 | 0.00 | 0.00 | 0.00 | 69 | 1024.6 |
| 20260905174609 | 64 | 270 | 4.0 | 8.0 | 0.00 | 0.00 | 0.00 | 67 | 1024.6 |
| 20260905173607 | 64 | 248 | 4.0 | 7.0 | 0.00 | 0.00 | 0.00 | 67 | 1024.6 |
| 20260905172605 | 64 | 248 | 3.0 | 8.0 | 0.00 | 0.00 | 0.00 | 66 | 1024.5 |
| 20260905171603 | 64 | 270 | 2.0 | 4.0 | 0.00 | 0.00 | 0.00 | 66 | 1024.3 |
| 20260905170601 | 65 | 254 | 4.0 | 6.0 | 0.00 | 0.00 | 0.00 | 65 | 1024.1 |
| 20260905165559 | 65 | 270 | 5.0 | 9.0 | 0.00 | 0.01 | 0.00 | 64 | 1024.1 |
| 20260905164557 | 65 | 317 | 3.0 | 7.0 | 0.00 | 0.04 | 0.00 | 66 | 1023.9 |
| 20260905163555 | 65 | 257 | 2.0 | 7.0 | 0.00 | 0.09 | 0.00 | 67 | 1023.9 |
| 20260905162553 | 65 | 241 | 4.0 | 6.0 | 0.00 | 0.13 | 0.00 | 67 | 1023.7 |
| 20260905161551 | 66 | 260 | 4.0 | 7.0 | 0.00 | 0.20 | 0.00 | 67 | 1023.5 |
| 20260905160549 | 66 | 271 | 4.0 | 11.0 | 0.00 | 0.25 | 0.00 | 67 | 1023.3 |
| 20260905155547 | 66 | 267 | 6.0 | 11.0 | 0.00 | 0.32 | 0.00 | 67 | 1023.2 |
| 20260905154545 | 66 | 230 | 5.0 | 11.0 | 0.00 | 0.40 | 0.00 | 66 | 1023.1 |
| 20260905153543 | 66 | 263 | 5.0 | 11.0 | 0.00 | 0.40 | 0.00 | 67 | 1023.1 |
| 20260905152541 | 66 | 246 | 4.0 | 8.0 | 0.00 | 0.41 | 0.00 | 67 | 1023.0 |
| 20260905151539 | 66 | 270 | 5.0 | 9.0 | 0.00 | 0.44 | 0.00 | 67 | 1022.9 |
| 20260905150537 | 66 | 281 | 4.0 | 11.0 | 0.00 | 0.45 | 0.00 | 67 | 1022.7 |
| 20260905145535 | 66 | 241 | 7.0 | 17.0 | 0.00 | 0.48 | 0.00 | 66 | 1022.6 |
| 20260905144533 | 67 | 258 | 8.0 | 16.0 | 0.00 | 0.50 | 0.00 | 64 | 1022.5 |
| 20260905143530 | 66 | 260 | 7.0 | 14.0 | 0.00 | 0.50 | 0.00 | 66 | 1022.4 |
| 20260905142528 | 66 | 270 | 7.0 | 14.0 | 0.00 | 0.51 | 0.00 | 66 | 1022.3 |
| 20260905141526 | 66 | 274 | 4.0 | 7.0 | 0.00 | 0.51 | 0.00 | 67 | 1022.4 |
| 20260905140525 | 66 | 287 | 7.0 | 11.0 | 0.00 | 0.51 | 0.00 | 66 | 1022.3 |
| 20260905135523 | 66 | 270 | 5.0 | 11.0 | 0.00 | 0.51 | 0.00 | 66 | 1022.2 |
| 20260905134520 | 67 | 236 | 7.0 | 16.0 | 0.00 | 0.51 | 0.00 | 66 | 1022.0 |
| 20260905133519 | 67 | 283 | 6.0 | 13.0 | 0.00 | 0.51 | 0.00 | 65 | 1021.9 |
| 20260905132516 | 68 | 243 | 9.0 | 17.0 | 0.00 | 0.51 | 0.00 | 63 | 1021.9 |
| 20260905131615 | 67 | 274 | 6.0 | 11.0 | 0.00 | 0.51 | 0.00 | 65 | 1021.7 |
| 20260905130632 | 67 | 264 | 6.0 | 11.0 | 0.00 | 0.51 | 0.00 | 64 | 1021.7 |
| 20260905125610 | 68 | 290 | 7.0 | 17.0 | 0.00 | 0.51 | 0.00 | 62 | 1021.6 |
| 20260905124608 | 68 | 305 | 7.0 | 14.0 | 0.00 | 0.51 | 0.00 | 63 | 1021.6 |
| 20260905123606 | 67 | 266 | 6.0 | 11.0 | 0.00 | 0.51 | 0.00 | 64 | 1021.2 |
| 20260905122604 | 69 | 259 | 4.0 | 9.0 | 0.00 | 0.51 | 0.00 | 63 | 1021.5 |
| 20260905121602 | 68 | 249 | 8.0 | 16.0 | 0.00 | 0.51 | 0.00 | 61 | 1021.3 |
| 20260905120620 | 68 | 280 | 5.0 | 14.0 | 0.00 | 0.51 | 0.00 | 65 | 1021.3 |
| 20260905115558 | 67 | 288 | 5.0 | 9.0 | 0.00 | 0.51 | 0.00 | 64 | 1021.2 |
| 20260905114556 | 67 | 273 | 4.0 | 9.0 | 0.00 | 0.51 | 0.00 | 66 | 1021.3 |
| 20260905113554 | 66 | 267 | 4.0 | 11.0 | 0.00 | 0.51 | 0.00 | 67 | 1021.4 |
| 20260905112552 | 65 | 292 | 5.0 | 9.0 | 0.00 | 0.51 | 0.00 | 67 | 1021.4 |
| 20260905111550 | 65 | 275 | 4.0 | 6.0 | 0.00 | 0.51 | 0.00 | 68 | 1021.4 |
| 20260905110608 | 65 | 246 | 4.0 | 8.0 | 0.00 | 0.51 | 0.00 | 68 | 1021.3 |
| 20260905105546 | 65 | 271 | 3.0 | 6.0 | 0.00 | 0.51 | 0.00 | 68 | 1021.2 |
| 20260905104604 | 65 | 253 | 3.0 | 9.0 | 0.00 | 0.51 | 0.00 | 68 | 1021.2 |
| 20260905103542 | 65 | 275 | 5.0 | 11.0 | 0.00 | 0.51 | 0.00 | 68 | 1021.1 |
| 20260905102540 | 64 | 265 | 4.0 | 11.0 | 0.00 | 0.51 | 0.00 | 68 | 1021.1 |
| 20260905101538 | 65 | 263 | 5.0 | 11.0 | 0.00 | 0.51 | 0.00 | 68 | 1021.2 |
| 20260905100536 | 64 | 271 | 3.0 | 8.0 | 0.00 | 0.51 | 0.00 | 69 | 1021.0 |
| 20260905095534 | 65 | 253 | 4.0 | 11.0 | 0.00 | 0.51 | 0.00 | 68 | 1020.9 |
| 20260905094532 | 65 | 291 | 5.0 | 13.0 | 0.00 | 0.51 | 0.00 | 68 | 1020.9 |
| 20260905093530 | 65 | 261 | 5.0 | 13.0 | 0.00 | 0.51 | 0.00 | 69 | 1020.9 |
| 20260905092528 | 65 | 264 | 4.0 | 8.0 | 0.00 | 0.51 | 0.00 | 69 | 1020.9 |
| 20260905091526 | 65 | 252 | 5.0 | 13.0 | 0.00 | 0.51 | 0.00 | 70 | 1020.8 |
| 20260905090524 | 64 | 254 | 4.0 | 9.0 | 0.00 | 0.51 | 0.00 | 70 | 1020.9 |
| 20260905085522 | 65 | 250 | 4.0 | 11.0 | 0.00 | 0.51 | 0.00 | 71 | 1020.8 |
| 20260905084521 | 64 | 281 | 5.0 | 9.0 | 0.00 | 0.51 | 0.00 | 73 | 1020.6 |
| 20260905083518 | 63 | 284 | 2.0 | 4.0 | 0.00 | 0.51 | 0.00 | 76 | 1020.5 |
| 20260905082516 | 63 | 248 | 3.0 | 9.0 | 0.00 | 0.51 | 0.00 | 76 | 1020.5 |
| 20260905081614 | 63 | 262 | 3.0 | 6.0 | 0.00 | 0.51 | 0.00 | 75 | 1020.4 |
| 20260905080612 | 62 | 266 | 4.0 | 8.0 | 0.00 | 0.51 | 0.00 | 78 | 1020.3 |
| 20260905075610 | 62 | 270 | 2.0 | 6.0 | 0.00 | 0.51 | 0.00 | 79 | 1020.1 |
| 20260905074628 | 61 | 254 | 1.0 | 4.0 | 0.00 | 0.51 | 0.00 | 79 | 1019.9 |
| 20260905073606 | 61 | 270 | 1.0 | 4.0 | 0.00 | 0.51 | 0.00 | 80 | 1019.9 |
| 20260905072604 | 61 | 272 | 1.0 | 4.0 | 0.00 | 0.51 | 0.00 | 81 | 1019.8 |
| 20260905071602 | 61 | 312 | 1.0 | 6.0 | 0.00 | 0.51 | 0.00 | 82 | 1019.8 |
| 20260905070600 | 60 | 281 | 2.0 | 4.0 | 0.00 | 0.51 | 0.00 | 82 | 1019.7 |
| 20260905065558 | 60 | 290 | 2.0 | 4.0 | 0.00 | 0.51 | 0.00 | 83 | 1019.5 |
| 20260905064556 | 60 | 285 | 1.0 | 4.0 | 0.00 | 0.51 | 0.00 | 83 | 1019.6 |
| 20260905063554 | 59 | 315 | 1.0 | 6.0 | 0.00 | 0.51 | 0.00 | 84 | 1019.4 |
| 20260905062552 | 58 | 252 | 1.0 | 2.0 | 0.00 | 0.51 | 0.00 | 86 | 1019.4 |
| 20260905061550 | 57 | 248 | 0.0 | 2.0 | 0.00 | 0.51 | 0.00 | 87 | 1019.3 |
| 20260905060548 | 57 | 283 | 1.0 | 2.0 | 0.00 | 0.51 | 0.00 | 86 | 1019.4 |
| 20260905055546 | 57 | 272 | 2.0 | 4.0 | 0.00 | 0.51 | 0.00 | 86 | 1019.3 |
| 20260905054604 | 57 | 279 | 2.0 | 4.0 | 0.00 | 0.51 | 0.00 | 86 | 1019.2 |
| 20260905053542 | 57 | 288 | 2.0 | 6.0 | 0.00 | 0.51 | 0.00 | 86 | 1018.9 |
| 20260905052540 | 58 | 278 | 2.0 | 6.0 | 0.00 | 0.51 | 0.00 | 85 | 1018.9 |
| 20260905051538 | 58 | 256 | 2.0 | 6.0 | 0.00 | 0.51 | 0.00 | 85 | 1018.8 |
| 20260905050536 | 58 | 282 | 1.0 | 4.0 | 0.00 | 0.51 | 0.00 | 86 | 1018.7 |
| 20260905045534 | 58 | 275 | 2.0 | 4.0 | 0.00 | 0.51 | 0.00 | 85 | 1018.5 |
| 20260905044531 | 58 | 272 | 3.0 | 6.0 | 0.00 | 0.51 | 0.00 | 85 | 1018.4 |
| 20260905043529 | 58 | 254 | 2.0 | 6.0 | 0.00 | 0.51 | 0.00 | 85 | 1018.3 |
| 20260905042528 | 58 | 284 | 3.0 | 6.0 | 0.00 | 0.51 | 0.00 | 85 | 1018.1 |
| 20260905041606 | 58 | 290 | 2.0 | 6.0 | 0.00 | 0.51 | 0.00 | 85 | 1018.3 |
| 20260905040523 | 58 | 290 | 3.0 | 7.0 | 0.00 | 0.51 | 0.00 | 85 | 1018.2 |
| 20260905035522 | 58 | 270 | 3.0 | 7.0 | 0.00 | 0.51 | 0.00 | 84 | 1018.2 |
| 20260905034559 | 59 | 255 | 3.0 | 9.0 | 0.00 | 0.51 | 0.00 | 84 | 1018.2 |
| 20260905033518 | 59 | 268 | 3.0 | 7.0 | 0.00 | 0.51 | 0.00 | 84 | 1018.0 |
| 20260905032515 | 59 | 294 | 3.0 | 8.0 | 0.00 | 0.51 | 0.00 | 84 | 1018.0 |
| 20260905031613 | 59 | 263 | 3.0 | 6.0 | 0.00 | 0.51 | 0.00 | 85 | 1017.9 |
| 20260905030611 | 59 | 285 | 2.0 | 4.0 | 0.00 | 0.51 | 0.00 | 84 | 1017.9 |
| 20260905025609 | 59 | 269 | 3.0 | 7.0 | 0.00 | 0.51 | 0.00 | 85 | 1017.9 |
| 20260905024607 | 59 | 272 | 3.0 | 8.0 | 0.00 | 0.51 | 0.00 | 85 | 1017.8 |
| 20260905023626 | 59 | 265 | 3.0 | 8.0 | 0.00 | 0.51 | 0.00 | 85 | 1017.7 |
| 20260905022603 | 59 | 259 | 4.0 | 11.0 | 0.00 | 0.51 | 0.00 | 85 | 1017.8 |
| 20260905021602 | 59 | 293 | 2.0 | 4.0 | 0.00 | 0.51 | 0.00 | 85 | 1017.8 |
| 20260905020600 | 59 | 254 | 3.0 | 7.0 | 0.00 | 0.51 | 0.00 | 85 | 1017.6 |
| 20260905015558 | 59 | 257 | 3.0 | 8.0 | 0.00 | 0.51 | 0.00 | 85 | 1017.5 |
| 20260905014555 | 59 | 235 | 1.0 | 6.0 | 0.00 | 0.51 | 0.00 | 85 | 1017.5 |
| 20260905013553 | 59 | 270 | 2.0 | 4.0 | 0.00 | 0.51 | 0.00 | 84 | 1017.5 |
| 20260905012551 | 59 | 248 | 2.0 | 4.0 | 0.00 | 0.51 | 0.00 | 84 | 1017.5 |
| 20260905011549 | 59 | 280 | 3.0 | 6.0 | 0.00 | 0.51 | 0.00 | 84 | 1017.4 |
| 20260905010608 | 59 | 257 | 2.0 | 6.0 | 0.00 | 0.51 | 0.00 | 84 | 1017.4 |
| 20260905005545 | 59 | 223 | 2.0 | 6.0 | 0.00 | 0.51 | 0.00 | 83 | 1017.4 |
| 20260905004543 | 59 | 290 | 3.0 | 7.0 | 0.00 | 0.51 | 0.00 | 83 | 1017.6 |
| 20260905003541 | 59 | 267 | 3.0 | 4.0 | 0.00 | 0.51 | 0.00 | 83 | 1017.5 |
| 20260905002539 | 59 | 250 | 3.0 | 9.0 | 0.00 | 0.51 | 0.00 | 83 | 1017.5 |
| 20260905001537 | 60 | 276 | 3.0 | 6.0 | 0.00 | 0.51 | 0.00 | 83 | 1017.5 |